Regional Weather Roundup
Issued by NWS

Home | Current Version | Previous Version | Graphics & Text | Print | Product List | Glossary On
Versions: 1 2 3 4 5 6 7 8 9 10 11 12 13 14 15 16 17 18 19 20 21 22 23 24 25 26 27 28 29 30 31 32 33 34 35 36 37 38 39 40 41 42 43 44 45 46 47 48 49 50
000
ASUS43 KTOP 241159
RWRKS

WEATHER ROUNDUP FOR KANSAS
NATIONAL WEATHER SERVICE GOODLAND KS
700 AM CDT SAT JUN 24 2017

NOTE:  "FAIR" INDICATES FEW OR NO CLOUDS BELOW 12,000 FEET WITH NO
SIGNIFICANT WEATHER AND/OR OBSTRUCTIONS TO VISIBILITY.

KSZ001>006-013>018-027>032-041>047-241300-
NORTHWEST KANSAS

CITY           SKY/WX    TMP DP  RH WIND       PRES   REMARKS
GOODLAND       MOCLDY    53  48  83 S5        30.26R
6HR MIN TEMP:  50; 6HR MAX TEMP:  56;

HAYS           CLEAR     58  51  78 CALM      30.22R
HILL CITY      CLEAR     53  48  83 NW3       30.24R
6HR MIN TEMP:  49; 6HR MAX TEMP:  58;

RUSSELL        CLEAR     54  49  83 W3        30.21R
6HR MIN TEMP:  53; 6HR MAX TEMP:  62;

$$

KSZ061>065-074>080-084>089-241300-
SOUTHWEST KANSAS

CITY           SKY/WX    TMP DP  RH WIND       PRES   REMARKS
DODGE CITY     MOCLDY    62  57  83 CALM      30.22R
6HR MIN TEMP:  59; 6HR MAX TEMP:  65;

ELKHART          N/A     61  45  56 CALM        N/A
GARDEN CITY    CLOUDY    60  53  77 N7        30.22R
6HR MIN TEMP:  56; 6HR MAX TEMP:  64;

GREAT BEND     CLEAR     56  53  90 NE3       30.22R
LIBERAL        CLOUDY    63  54  72 NE3       30.23S
$$

KSZ066>073-081>083-090>101-241300-
SOUTHEAST KANSAS

CITY           SKY/WX    TMP DP  RH WIND       PRES   REMARKS
CHANUTE        CLEAR     58  55  90 N5        30.16R
6HR MIN TEMP:  53; 6HR MAX TEMP:  68;

COFFEYVILLE    PTCLDY    63  58  83 NE3       30.14R
6HR MIN TEMP:  60; 6HR MAX TEMP:  67;

HUTCHINSON     CLEAR     57  51  80 N3        30.19R
6HR MIN TEMP:  53; 6HR MAX TEMP:  65;

MEDICINE LODGE   N/A     65  52  62 NE6       30.19R
NEWTON         CLEAR     60  51  72 CALM      30.20R
PARSONS        CLOUDY    64  56  75 CALM      30.16R
6HR MIN TEMP:  57; 6HR MAX TEMP:  71;

WICHITA INTL   CLOUDY    64  55  72 NE3       30.18R
6HR MIN TEMP:  59; 6HR MAX TEMP:  72;

WICHITA JABRA  CLOUDY    60  55  83 CALM      30.18R
6HR MIN TEMP:  56; 6HR MAX TEMP:  67;

WINFIELD       CLOUDY    67  55  65 CALM      30.18R
6HR MIN TEMP:  66; 6HR MAX TEMP:  71;

$$

KSZ007>012-019>026-033>040-048>060-102>105-241300-
NORTHEAST KANSAS

CITY           SKY/WX    TMP DP  RH WIND       PRES   REMARKS
CONCORDIA      CLEAR     56  48  74 NW3       30.20R
6HR MIN TEMP:  52; 6HR MAX TEMP:  63;

EMPORIA        CLEAR     57  54  89 NW3       30.18R
6HR MIN TEMP:  55; 6HR MAX TEMP:  62;

LAWRENCE       SUNNY     57  55  93 NW8       30.16R
6HR MIN TEMP:  53; 6HR MAX TEMP:  59;

MANHATTAN      CLEAR     53  51  93 CALM      30.19R
6HR MIN TEMP:  50; 6HR MAX TEMP:  62;

OLATHE IND     SUNNY     60  53  77 NW7       30.16R
6HR MIN TEMP:  54; 6HR MAX TEMP:  63;

OLATHE EXE     SUNNY     61  54  77 NW5       30.16R
6HR MIN TEMP:  59; 6HR MAX TEMP:  66;

SALINA         CLEAR     58  51  78 NW3       30.19R
6HR MIN TEMP:  56; 6HR MAX TEMP:  67;

TOPEKA BILLARD CLEAR     58  56  93 NW5       30.17R
6HR MIN TEMP:  56; 6HR MAX TEMP:  64;

TOPEKA FORBES  CLEAR     59  55  87 NW6       30.17R
6HR MIN TEMP:  54; 6HR MAX TEMP:  63;

$$




USA.gov is the U.S. government's official web portal to all federal, state and local government web resources and services.